User: anonymous   Login
Location: Unspecified
(0.0000°N, 0.0000°E)
Time: 20:42:07
(UTC+00:00)
Language:

TACSAT 4 - Orbit

View from above orbital plane
View from above orbital plane
View from above satellite
View from above satellite

Ground track
Ground track

The orbit data is extracted from the following two-line orbital elements,

1 37818U 11052A   17172.35983487 +.00000514 +00000-0 +13913-2 0  9990
2 37818 063.2546 111.5023 4539660 213.5312 328.4346 06.02673633126092
Epoch (UTC): 21 June 2017 08:38:09
Eccentricity: 0.4539660
inclination: 63.2546°
perigee height: 586 km
apogee height: 12167 km
right ascension of ascending node: 111.5023°
argument of perigee: 213.5312°
revolutions per day: 6.02673633
mean anomaly at epoch: 328.4346°
orbit number at epoch: 12609

The dashed part of the orbit path shows where the satellite is in the earth's shadow,  

DLR